KLM74L LPPT-EHAM

Flight info

Callsign KLM74L
Flight time N/A
Altitude 38000
Route IXIDA DCT RIVRO DCT TOSDI DCT ZMR DCT NUBLO DCT RONSI DCT DELOG DCT PEXOD DCT DIDIG DCT USODA DCT ERCUT DCT DITAL UN873 BAZOS DCT LUMIL DCT BELOB UY873 DENUT
Aircraft B737/M-SDE2E3FGHIRWXY/LB1

Departure

Time 2026-05-01 14:19
Airport Lisbon Humberto Delgado Airport (LPPT)

Arrival

Time N/A
Airport Amsterdam Airport Schiphol (EHAM)
Time Latitude Longitude Altitude Speed Heading
2026-05-01 13:49 38.76982 -9.13079 335 ft 0 kts 79°
2026-05-01 13:49 38.76982 -9.13075 335 ft 0 kts 78°
2026-05-01 14:06 38.76981 -9.13079 336 ft 3 kts 78°
2026-05-01 14:07 38.76976 -9.13113 334 ft 4 kts 78°
2026-05-01 14:07 38.76972 -9.13140 333 ft 4 kts 64°
2026-05-01 14:07 38.76956 -9.13158 333 ft 4 kts 357°
2026-05-01 14:08 38.76966 -9.13162 335 ft 4 kts 348°
2026-05-01 14:08 38.76974 -9.13164 334 ft 2 kts 348°
2026-05-01 14:12 38.76975 -9.13164 337 ft 1 kts 348°
2026-05-01 14:12 38.77005 -9.13176 338 ft 8 kts 334°
2026-05-01 14:12 38.77019 -9.13246 339 ft 9 kts 263°
2026-05-01 14:12 38.77049 -9.13304 339 ft 9 kts 339°
2026-05-01 14:13 38.77115 -9.13321 340 ft 11 kts 348°
2026-05-01 14:13 38.77170 -9.13336 339 ft 13 kts 348°
2026-05-01 14:13 38.77306 -9.13372 339 ft 16 kts 348°
2026-05-01 14:13 38.77424 -9.13404 346 ft 18 kts 348°
2026-05-01 14:14 38.77554 -9.13439 348 ft 19 kts 348°
2026-05-01 14:14 38.77680 -9.13474 349 ft 18 kts 348°
2026-05-01 14:14 38.77803 -9.13507 358 ft 18 kts 348°
2026-05-01 14:14 38.77919 -9.13477 355 ft 17 kts 25°
2026-05-01 14:15 38.78027 -9.13419 363 ft 16 kts 22°
2026-05-01 14:15 38.78131 -9.13364 358 ft 16 kts 23°
2026-05-01 14:15 38.78231 -9.13311 360 ft 15 kts 22°
2026-05-01 14:15 38.78327 -9.13260 361 ft 15 kts 22°
2026-05-01 14:16 38.78421 -9.13223 359 ft 14 kts
2026-05-01 14:16 38.78513 -9.13248 366 ft 13 kts 327°
2026-05-01 14:16 38.78560 -9.13339 363 ft 9 kts 293°
2026-05-01 14:16 38.78531 -9.13380 362 ft 7 kts 203°
2026-05-01 14:17 38.78527 -9.13382 364 ft 3 kts 203°
2026-05-01 14:17 38.78502 -9.13396 361 ft 4 kts 203°
2026-05-01 14:17 38.78494 -9.13400 363 ft 0 kts 203°
2026-05-01 14:18 38.78492 -9.13402 363 ft 5 kts 203°
2026-05-01 14:18 38.78213 -9.13551 366 ft 87 kts 202°
2026-05-01 14:18 38.77412 -9.13994 377 ft 160 kts 204°
2026-05-01 14:18 38.76662 -9.14407 717 ft 177 kts 205°
2026-05-01 14:19 38.75216 -9.15191 2337 ft 167 kts 203°
2026-05-01 14:19 38.74108 -9.15771 3068 ft 184 kts 202°
2026-05-01 14:19 38.72805 -9.16443 3402 ft 218 kts 202°
2026-05-01 14:19 38.71321 -9.17201 3884 ft 236 kts 202°
2026-05-01 14:20 38.69815 -9.17966 4735 ft 236 kts 202°
2026-05-01 14:20 38.66793 -9.19700 6265 ft 246 kts 219°
2026-05-01 14:20 38.65723 -9.21503 6774 ft 265 kts 245°
2026-05-01 14:21 38.65299 -9.23814 7711 ft 271 kts 266°
2026-05-01 14:21 38.65619 -9.26202 8754 ft 277 kts 287°
2026-05-01 14:21 38.66371 -9.28502 9730 ft 285 kts 295°
2026-05-01 14:22 38.69799 -9.31445 10819 ft 340 kts 351°
2026-05-01 14:22 38.72209 -9.31125 11079 ft 369 kts 20°
2026-05-01 14:22 38.74454 -9.29462 11752 ft 378 kts 37°
2026-05-01 14:22 38.76541 -9.27357 12549 ft 385 kts 40°
2026-05-01 14:23 38.78667 -9.25226 13353 ft 392 kts 37°
2026-05-01 14:23 38.80902 -9.23177 14106 ft 399 kts 35°
2026-05-01 14:23 38.83223 -9.21169 14836 ft 404 kts 34°
2026-05-01 14:23 38.85525 -9.19077 15598 ft 408 kts 42°
2026-05-01 14:24 38.87520 -9.16466 16366 ft 412 kts 49°
2026-05-01 14:24 38.89416 -9.13684 17088 ft 417 kts 50°
2026-05-01 14:24 38.91314 -9.10827 17798 ft 423 kts 50°
2026-05-01 14:24 38.93243 -9.07938 18530 ft 427 kts 50°
2026-05-01 14:25 38.95194 -9.05052 19242 ft 429 kts 49°
2026-05-01 14:25 38.97177 -9.02151 19831 ft 435 kts 49°
2026-05-01 14:25 38.99198 -8.99217 20411 ft 440 kts 48°
2026-05-01 14:25 39.01242 -8.96259 21082 ft 443 kts 48°
2026-05-01 14:26 39.03294 -8.93291 21716 ft 446 kts 48°
2026-05-01 14:26 39.07466 -8.87247 22854 ft 456 kts 47°
2026-05-01 14:26 39.09578 -8.84181 23439 ft 460 kts 47°
2026-05-01 14:27 39.11682 -8.81123 23935 ft 464 kts 47°
2026-05-01 14:27 39.13828 -8.78001 24375 ft 468 kts 47°
2026-05-01 14:27 39.15996 -8.74844 24824 ft 472 kts 47°
2026-05-01 14:28 39.20379 -8.68446 25758 ft 478 kts 47°
2026-05-01 14:28 39.22580 -8.65224 26190 ft 482 kts 47°
2026-05-01 14:28 39.24808 -8.61960 26571 ft 487 kts 46°
2026-05-01 14:28 39.27053 -8.58666 26945 ft 491 kts 46°
2026-05-01 14:29 39.29319 -8.55338 27293 ft 496 kts 46°
2026-05-01 14:29 39.31611 -8.51968 27679 ft 500 kts 46°
2026-05-01 14:30 39.38558 -8.41731 28810 ft 511 kts 46°
2026-05-01 14:30 39.40906 -8.38265 29158 ft 514 kts 45°
2026-05-01 14:30 39.43267 -8.34773 29510 ft 518 kts 45°
2026-05-01 14:31 39.48022 -8.27731 30239 ft 522 kts 45°
2026-05-01 14:31 39.50419 -8.24175 30525 ft 525 kts 45°
2026-05-01 14:31 39.52815 -8.20615 30941 ft 524 kts 45°
2026-05-01 14:31 39.55201 -8.17064 31438 ft 521 kts 45°
2026-05-01 14:32 39.57579 -8.13522 31861 ft 520 kts 45°
2026-05-01 14:32 39.59925 -8.10026 32197 ft 521 kts 45°
2026-05-01 14:32 39.62338 -8.06428 32540 ft 522 kts 45°
2026-05-01 14:32 39.64719 -8.02873 32896 ft 522 kts 45°
2026-05-01 14:33 39.67107 -7.99410 33253 ft 520 kts 43°
2026-05-01 14:33 39.69611 -7.96037 33592 ft 519 kts 41°
2026-05-01 14:33 39.72166 -7.92727 33920 ft 518 kts 40°
2026-05-01 14:33 39.74735 -7.89440 34245 ft 518 kts 40°
2026-05-01 14:34 39.77295 -7.86156 34556 ft 518 kts 40°
2026-05-01 14:34 39.79856 -7.82844 34749 ft 520 kts 40°
2026-05-01 14:34 39.82414 -7.79508 34976 ft 521 kts 41°
2026-05-01 14:34 39.84960 -7.76161 35294 ft 519 kts 41°
2026-05-01 14:35 39.87497 -7.72810 35515 ft 520 kts 41°
2026-05-01 14:35 39.90036 -7.69450 35747 ft 521 kts 41°
2026-05-01 14:35 39.92571 -7.66089 36044 ft 519 kts 41°
2026-05-01 14:35 39.95104 -7.62728 36287 ft 519 kts 40°
2026-05-01 14:36 39.97638 -7.59367 36550 ft 519 kts 40°
2026-05-01 14:36 40.00155 -7.56023 36904 ft 516 kts 40°
2026-05-01 14:36 40.02667 -7.52683 37206 ft 515 kts 40°
2026-05-01 14:36 40.05174 -7.49347 37489 ft 514 kts 40°
2026-05-01 14:37 40.07674 -7.46016 37738 ft 513 kts 40°
2026-05-01 14:37 40.10176 -7.42681 37944 ft 514 kts 40°
2026-05-01 14:37 40.12679 -7.39341 38122 ft 515 kts 40°
2026-05-01 14:38 40.17679 -7.32659 38127 ft 519 kts 40°
2026-05-01 14:38 40.22701 -7.25923 38104 ft 514 kts 40°
2026-05-01 14:39 40.27678 -7.19233 38131 ft 510 kts 40°
2026-05-01 14:39 40.32611 -7.12591 38121 ft 507 kts 40°
2026-05-01 14:40 40.37514 -7.05975 38115 ft 504 kts 40°
2026-05-01 14:40 40.42388 -6.99386 38120 ft 502 kts 40°
2026-05-01 14:41 40.47258 -6.92787 38124 ft 505 kts 40°
2026-05-01 14:41 40.52154 -6.86142 38131 ft 513 kts 41°
2026-05-01 14:42 40.57107 -6.79392 38118 ft 512 kts 41°
2026-05-01 14:42 40.62055 -6.72643 38112 ft 511 kts 40°
2026-05-01 14:43 40.67196 -6.66350 38107 ft 505 kts 36°
2026-05-01 14:43 40.72487 -6.60274 38125 ft 503 kts 35°
2026-05-01 14:44 40.77734 -6.54187 38108 ft 502 kts 36°
2026-05-01 14:44 40.85529 -6.44994 38110 ft 499 kts 37°
2026-05-01 14:45 40.93267 -6.35827 38116 ft 497 kts 36°
2026-05-01 14:46 40.98403 -6.29732 38128 ft 496 kts 37°
2026-05-01 14:46 41.06086 -6.20582 38127 ft 494 kts 37°
2026-05-01 14:47 41.11161 -6.14516 38123 ft 494 kts 37°
2026-05-01 14:48 41.18817 -6.05342 38123 ft 494 kts 37°
2026-05-01 14:48 41.26470 -5.96140 38116 ft 494 kts 38°
2026-05-01 14:49 41.36644 -5.83859 38121 ft 493 kts 38°
2026-05-01 14:50 41.45933 -5.72600 38127 ft 492 kts 39°
2026-05-01 14:51 41.53735 -5.63799 38125 ft 485 kts 27°
2026-05-01 14:52 41.62825 -5.58312 38136 ft 476 kts 17°
2026-05-01 14:53 41.71986 -5.53284 38133 ft 477 kts 19°
2026-05-01 14:53 41.78106 -5.49840 38131 ft 477 kts 19°
2026-05-01 14:54 41.84223 -5.46367 38129 ft 477 kts 19°
2026-05-01 14:54 41.90348 -5.42881 38135 ft 478 kts 19°
2026-05-01 14:55 41.96475 -5.39388 38136 ft 479 kts 19°
2026-05-01 14:55 42.02571 -5.35907 38136 ft 479 kts 19°
2026-05-01 14:56 42.08716 -5.32392 38146 ft 480 kts 20°
2026-05-01 14:56 42.14864 -5.28866 38138 ft 480 kts 20°
2026-05-01 14:57 42.21022 -5.25328 38131 ft 481 kts 20°
2026-05-01 14:57 42.30245 -5.20015 38149 ft 480 kts 20°
2026-05-01 14:58 42.36388 -5.16466 38137 ft 480 kts 20°
2026-05-01 14:58 42.42533 -5.12909 38137 ft 480 kts 20°
2026-05-01 14:59 42.48637 -5.09368 38136 ft 480 kts 20°
2026-05-01 14:59 42.54776 -5.05798 38140 ft 480 kts 21°
2026-05-01 15:00 42.63992 -5.00426 38145 ft 481 kts 21°
2026-05-01 15:01 42.70141 -4.96832 38144 ft 481 kts 21°
2026-05-01 15:01 42.76288 -4.93234 38126 ft 481 kts 21°
2026-05-01 15:02 42.82394 -4.89650 38135 ft 481 kts 21°
2026-05-01 15:02 42.88535 -4.86038 38134 ft 480 kts 21°
2026-05-01 15:03 42.94673 -4.82420 38142 ft 480 kts 21°
2026-05-01 15:03 43.00814 -4.78791 38133 ft 481 kts 21°
2026-05-01 15:04 43.06949 -4.75159 38129 ft 481 kts 21°
2026-05-01 15:04 43.13052 -4.71537 38136 ft 480 kts 21°
2026-05-01 15:05 43.19181 -4.67891 38147 ft 481 kts 22°
2026-05-01 15:05 43.25318 -4.64234 38161 ft 481 kts 21°
2026-05-01 15:06 43.31469 -4.60559 38151 ft 482 kts 22°
2026-05-01 15:06 43.37510 -4.56942 38122 ft 482 kts 22°
2026-05-01 15:07 43.42673 -4.53844 38132 ft 481 kts 22°
2026-05-01 15:07 43.48782 -4.50172 38126 ft 479 kts 22°
2026-05-01 15:08 43.54889 -4.46497 38148 ft 478 kts 22°
2026-05-01 15:08 43.60977 -4.42825 38129 ft 477 kts 22°
2026-05-01 15:09 43.67048 -4.39155 38130 ft 476 kts 22°
2026-05-01 15:09 43.73076 -4.35502 38130 ft 475 kts 22°
2026-05-01 15:10 43.79138 -4.31820 38133 ft 476 kts 22°
2026-05-01 15:10 43.88235 -4.26280 38130 ft 476 kts 22°
2026-05-01 15:11 43.97348 -4.20711 38140 ft 478 kts 22°
2026-05-01 15:12 44.03441 -4.16977 38128 ft 479 kts 22°
2026-05-01 15:12 44.12544 -4.11382 38126 ft 479 kts 22°
2026-05-01 15:14 44.27807 -4.01958 38133 ft 480 kts 23°
2026-05-01 15:14 44.36652 -3.95447 38158 ft 480 kts 34°
2026-05-01 15:15 44.43929 -3.88289 38146 ft 480 kts 35°
2026-05-01 15:16 44.58298 -3.74254 38146 ft 479 kts 34°
2026-05-01 15:18 44.71828 -3.61079 38147 ft 477 kts 34°
2026-05-01 15:19 44.82691 -3.50439 38158 ft 476 kts 34°
2026-05-01 15:19 44.90844 -3.42420 38150 ft 476 kts 34°
2026-05-01 15:20 44.98991 -3.34379 38161 ft 476 kts 34°
2026-05-01 15:21 45.04420 -3.29005 38167 ft 476 kts 34°
2026-05-01 15:21 45.09839 -3.23627 38166 ft 476 kts 34°
2026-05-01 15:22 45.17939 -3.15565 38173 ft 476 kts 35°
2026-05-01 15:22 45.23358 -3.10155 38173 ft 476 kts 35°
2026-05-01 15:23 45.28775 -3.04735 38183 ft 476 kts 34°
2026-05-01 15:23 45.34177 -2.99295 38175 ft 476 kts 35°
2026-05-01 15:24 45.39541 -2.93770 38181 ft 476 kts 36°
2026-05-01 15:24 45.44889 -2.88224 38184 ft 475 kts 36°
2026-05-01 15:25 45.50240 -2.82676 38182 ft 475 kts 36°
2026-05-01 15:25 45.55552 -2.77164 38198 ft 475 kts 36°
2026-05-01 15:26 45.60896 -2.71607 38191 ft 475 kts 35°
2026-05-01 15:26 45.66234 -2.66041 38186 ft 474 kts 35°
2026-05-01 15:27 45.71561 -2.60475 38190 ft 473 kts 35°
2026-05-01 15:28 45.79527 -2.52124 38198 ft 472 kts 35°
2026-05-01 15:28 45.84825 -2.46554 38198 ft 472 kts 35°
2026-05-01 15:29 45.90105 -2.40988 38514 ft 474 kts 36°
2026-05-01 15:29 45.92754 -2.38191 38833 ft 471 kts 36°
2026-05-01 15:29 45.98016 -2.32623 39196 ft 470 kts 35°
2026-05-01 15:30 46.03295 -2.27027 39196 ft 470 kts 35°
2026-05-01 15:31 46.19453 -2.11501 39204 ft 463 kts 32°
2026-05-01 15:32 46.30232 -2.01293 39206 ft 464 kts 32°
2026-05-01 15:34 46.46430 -1.85796 39201 ft 467 kts 32°